Location: Buchdorf
(48.7842°N, 10.8275°E)
Time: 18:19:03
(UTC+00:00)

STARLINK-1243 - Pass Details

Date: 09 April 2020
Orbit: 549 x 550 km, 53.0° (Epoch: 25 May)

Event Time Altitude Azimuth Distance (km) Brightness Sun altitude
Rises 19:14:28 0° 293° (WNW) 2,730 9.3 -12.3°
Reaches altitude 10° 19:16:43 10° 295° (WNW) 1,835 7.8 -12.6°
Maximum altitude 19:20:53 76° 21° (NNE) 573 3.7 -13.2°
Enters shadow 19:23:30 22° 106° (ESE) 1,235 4.8 -13.6°
